Year,Month,Day,Hour,Minute,Value (Times are PST for temperature in C)
2009,07,29,00,00,22.80
2009,07,29,00,01,22.70
2009,07,29,00,02,22.70
2009,07,29,00,03,22.70
2009,07,29,00,04,22.70
2009,07,29,00,05,22.70
2009,07,29,00,06,22.60
2009,07,29,00,07,22.60
2009,07,29,00,08,22.60
2009,07,29,00,09,22.60
2009,07,29,00,10,22.50
2009,07,29,00,11,22.50
2009,07,29,00,12,22.50
2009,07,29,00,13,22.50
2009,07,29,00,14,22.40
2009,07,29,00,15,22.40
2009,07,29,00,16,22.40
2009,07,29,00,17,22.40
2009,07,29,00,18,22.40
2009,07,29,00,19,22.30
2009,07,29,00,20,22.30
2009,07,29,00,21,22.30
2009,07,29,00,22,22.30
2009,07,29,00,23,22.30
2009,07,29,00,24,22.30
2009,07,29,00,25,22.30
2009,07,29,00,26,22.20
2009,07,29,00,27,22.20
2009,07,29,00,28,22.20
2009,07,29,00,29,22.20
2009,07,29,00,30,22.20
2009,07,29,00,31,22.20
2009,07,29,00,32,22.20
2009,07,29,00,33,22.10
2009,07,29,00,34,22.10
2009,07,29,00,35,22.10
2009,07,29,00,36,22.10
2009,07,29,00,37,22.10
2009,07,29,00,38,22.10
2009,07,29,00,39,22.00
2009,07,29,00,40,22.00
2009,07,29,00,41,22.00
2009,07,29,00,42,22.00
2009,07,29,00,43,21.90
2009,07,29,00,44,21.90
2009,07,29,00,45,21.90
2009,07,29,00,46,22.00
2009,07,29,00,47,22.00
2009,07,29,00,48,22.00
2009,07,29,00,49,22.00
2009,07,29,00,50,22.00
2009,07,29,00,51,22.10
2009,07,29,00,52,22.10
2009,07,29,00,53,22.10
2009,07,29,00,54,22.10
2009,07,29,00,55,22.10
2009,07,29,00,56,22.10
2009,07,29,00,57,22.10
2009,07,29,00,58,22.10
2009,07,29,00,59,22.10
2009,07,29,01,00,22.10
2009,07,29,01,01,22.10
2009,07,29,01,02,22.10
2009,07,29,01,03,22.10
2009,07,29,01,04,22.10
2009,07,29,01,05,22.10
2009,07,29,01,06,22.00
2009,07,29,01,07,22.00
2009,07,29,01,08,22.00
2009,07,29,01,09,21.90
2009,07,29,01,10,21.90
2009,07,29,01,11,21.90
2009,07,29,01,12,21.90
2009,07,29,01,13,21.80
2009,07,29,01,14,21.80
2009,07,29,01,15,21.80
2009,07,29,01,16,21.80
2009,07,29,01,17,21.80
2009,07,29,01,18,21.80
2009,07,29,01,19,21.80
2009,07,29,01,20,21.80
2009,07,29,01,21,21.80
2009,07,29,01,22,21.80
2009,07,29,01,23,21.80
2009,07,29,01,24,21.80
2009,07,29,01,25,21.80
2009,07,29,01,26,21.80
2009,07,29,01,27,21.80
2009,07,29,01,28,21.80
2009,07,29,01,29,21.80
2009,07,29,01,30,21.80
2009,07,29,01,31,21.80
2009,07,29,01,32,21.70
2009,07,29,01,33,21.70
2009,07,29,01,34,21.70
2009,07,29,01,35,21.70
2009,07,29,01,36,21.70
2009,07,29,01,37,21.70
2009,07,29,01,38,21.70
2009,07,29,01,39,21.70
2009,07,29,01,40,21.70
2009,07,29,01,41,21.60
2009,07,29,01,42,21.60
2009,07,29,01,43,21.60
2009,07,29,01,44,21.60
2009,07,29,01,45,21.60
2009,07,29,01,46,21.60
2009,07,29,01,47,21.60
2009,07,29,01,48,21.60
2009,07,29,01,49,21.60
2009,07,29,01,50,21.60
2009,07,29,01,51,21.60
2009,07,29,01,52,21.60
2009,07,29,01,53,21.60
2009,07,29,01,54,21.60
2009,07,29,01,55,21.70
2009,07,29,01,56,21.70
2009,07,29,01,57,21.70
2009,07,29,01,58,21.80
2009,07,29,01,59,21.80
2009,07,29,02,00,21.80
2009,07,29,02,01,21.80
2009,07,29,02,02,21.80
2009,07,29,02,03,21.80
2009,07,29,02,04,21.80
2009,07,29,02,05,21.80
2009,07,29,02,06,21.80
2009,07,29,02,07,21.80
2009,07,29,02,08,21.80
2009,07,29,02,09,21.70
2009,07,29,02,10,21.70
2009,07,29,02,11,21.70
2009,07,29,02,12,21.70
2009,07,29,02,13,21.60
2009,07,29,02,14,21.60
2009,07,29,02,15,21.60
2009,07,29,02,16,21.50
2009,07,29,02,17,21.40
2009,07,29,02,18,21.30
2009,07,29,02,19,21.30
2009,07,29,02,20,21.30
2009,07,29,02,21,21.30
2009,07,29,02,22,21.20
2009,07,29,02,23,21.20
2009,07,29,02,24,21.20
2009,07,29,02,25,21.20
2009,07,29,02,26,21.20
2009,07,29,02,27,21.10
2009,07,29,02,28,21.10
2009,07,29,02,29,21.10
2009,07,29,02,30,21.10
2009,07,29,02,31,21.10
2009,07,29,02,32,21.10
2009,07,29,02,33,21.10
2009,07,29,02,34,21.00
2009,07,29,02,35,21.00
2009,07,29,02,36,21.00
2009,07,29,02,37,21.00
2009,07,29,02,38,21.00
2009,07,29,02,39,20.90
2009,07,29,02,40,20.90
2009,07,29,02,41,20.80
2009,07,29,02,42,20.80
2009,07,29,02,43,20.80
2009,07,29,02,44,20.70
2009,07,29,02,45,20.70
2009,07,29,02,46,20.70
2009,07,29,02,47,20.70
2009,07,29,02,48,20.70
2009,07,29,02,49,20.70
2009,07,29,02,50,20.70
2009,07,29,02,51,20.70
2009,07,29,02,52,20.70
2009,07,29,02,53,20.70
2009,07,29,02,54,20.70
2009,07,29,02,55,20.70
2009,07,29,02,56,20.70
2009,07,29,02,57,20.70
2009,07,29,02,58,20.70
2009,07,29,02,59,20.70
2009,07,29,03,00,20.70
2009,07,29,03,01,20.70
2009,07,29,03,02,20.70
2009,07,29,03,03,20.80
2009,07,29,03,04,20.80
2009,07,29,03,05,20.80
2009,07,29,03,06,20.80
2009,07,29,03,07,20.90
2009,07,29,03,08,20.90
2009,07,29,03,09,20.90
2009,07,29,03,10,21.00
2009,07,29,03,11,21.00
2009,07,29,03,12,21.00
2009,07,29,03,13,21.00
2009,07,29,03,14,21.00
2009,07,29,03,15,21.00
2009,07,29,03,16,21.00
2009,07,29,03,17,21.00
2009,07,29,03,18,21.00
2009,07,29,03,19,21.00
2009,07,29,03,20,21.00
2009,07,29,03,21,21.00
2009,07,29,03,22,21.00
2009,07,29,03,23,21.00
2009,07,29,03,24,21.00
2009,07,29,03,25,20.90
2009,07,29,03,26,20.90
2009,07,29,03,27,20.80
2009,07,29,03,28,20.80
2009,07,29,03,29,20.70
2009,07,29,03,30,20.70
2009,07,29,03,31,20.70
2009,07,29,03,32,20.70
2009,07,29,03,33,20.60
2009,07,29,03,34,20.60
2009,07,29,03,35,20.60
2009,07,29,03,36,20.60
2009,07,29,03,37,20.50
2009,07,29,03,38,20.40
2009,07,29,03,39,20.20
2009,07,29,03,40,20.00
2009,07,29,03,41,19.80
2009,07,29,03,42,19.60
2009,07,29,03,43,19.30
2009,07,29,03,44,19.10
2009,07,29,03,45,19.00
2009,07,29,03,46,18.70
2009,07,29,03,47,18.60
2009,07,29,03,48,18.50
2009,07,29,03,49,18.40
2009,07,29,03,50,18.30
2009,07,29,03,51,18.30
2009,07,29,03,52,18.20
2009,07,29,03,53,18.20
2009,07,29,03,54,18.20
2009,07,29,03,55,18.20
2009,07,29,03,56,18.20
2009,07,29,03,57,18.20
2009,07,29,03,58,18.20
2009,07,29,03,59,18.20
2009,07,29,04,00,18.20
2009,07,29,04,01,18.20
2009,07,29,04,02,18.30
2009,07,29,04,03,18.30
2009,07,29,04,04,18.30
2009,07,29,04,05,18.30
2009,07,29,04,06,18.30
2009,07,29,04,07,18.30
2009,07,29,04,08,18.30
2009,07,29,04,09,18.20
2009,07,29,04,10,18.10
2009,07,29,04,11,18.00
2009,07,29,04,12,17.70
2009,07,29,04,13,17.50
2009,07,29,04,14,17.30
2009,07,29,04,15,17.10
2009,07,29,04,16,17.00
2009,07,29,04,17,16.90
2009,07,29,04,18,16.80
2009,07,29,04,19,16.70
2009,07,29,04,20,16.70
2009,07,29,04,21,16.70
2009,07,29,04,22,16.70
2009,07,29,04,23,16.70
2009,07,29,04,24,16.70
2009,07,29,04,25,16.70
2009,07,29,04,26,16.70
2009,07,29,04,27,16.70
2009,07,29,04,28,16.70
2009,07,29,04,29,16.80
2009,07,29,04,30,16.80
2009,07,29,04,31,16.90
2009,07,29,04,32,16.90
2009,07,29,04,33,17.00
2009,07,29,04,34,17.00
2009,07,29,04,35,17.10
2009,07,29,04,36,17.10
2009,07,29,04,37,17.20
2009,07,29,04,38,17.20
2009,07,29,04,39,17.30
2009,07,29,04,40,17.30
2009,07,29,04,41,17.30
2009,07,29,04,42,17.40
2009,07,29,04,43,17.50
2009,07,29,04,44,17.70
2009,07,29,04,45,17.80
2009,07,29,04,46,18.00
2009,07,29,04,47,18.20
2009,07,29,04,48,18.40
2009,07,29,04,49,18.60
2009,07,29,04,50,18.90
2009,07,29,04,51,19.10
2009,07,29,04,52,19.30
2009,07,29,04,53,19.60
2009,07,29,04,54,19.70
2009,07,29,04,55,19.90
2009,07,29,04,56,20.10
2009,07,29,04,57,20.30
2009,07,29,04,58,20.40
2009,07,29,04,59,20.50
2009,07,29,05,00,20.70
2009,07,29,05,01,20.90
2009,07,29,05,02,21.00
2009,07,29,05,03,21.10
2009,07,29,05,04,21.20
2009,07,29,05,05,21.30
2009,07,29,05,06,21.40
2009,07,29,05,07,21.60
2009,07,29,05,08,21.60
2009,07,29,05,09,21.70
2009,07,29,05,10,21.80
2009,07,29,05,11,21.90
2009,07,29,05,12,21.90
2009,07,29,05,13,21.90
2009,07,29,05,14,21.90
2009,07,29,05,15,22.00
2009,07,29,05,16,22.00
2009,07,29,05,17,21.90
2009,07,29,05,18,21.90
2009,07,29,05,19,21.90
2009,07,29,05,20,21.90
2009,07,29,05,21,21.90
2009,07,29,05,22,21.80
2009,07,29,05,23,21.80
2009,07,29,05,24,21.80
2009,07,29,05,25,21.70
2009,07,29,05,26,21.70
2009,07,29,05,27,21.60
2009,07,29,05,28,21.60
2009,07,29,05,29,21.60
2009,07,29,05,30,21.50
2009,07,29,05,31,21.40
2009,07,29,05,32,21.30
2009,07,29,05,33,21.30
2009,07,29,05,34,21.30
2009,07,29,05,35,21.20
2009,07,29,05,36,21.10
2009,07,29,05,37,21.00
2009,07,29,05,38,21.00
2009,07,29,05,39,20.90
2009,07,29,05,40,20.80
2009,07,29,05,41,20.80
2009,07,29,05,42,20.70
2009,07,29,05,43,20.60
2009,07,29,05,44,20.60
2009,07,29,05,45,20.50
2009,07,29,05,46,20.50
2009,07,29,05,47,20.40
2009,07,29,05,48,20.30
2009,07,29,05,49,20.30
2009,07,29,05,50,20.30
2009,07,29,05,51,20.20
2009,07,29,05,52,20.20
2009,07,29,05,53,20.20
2009,07,29,05,54,20.30
2009,07,29,05,55,20.30
2009,07,29,05,56,20.40
2009,07,29,05,57,20.40
2009,07,29,05,58,20.50
2009,07,29,05,59,20.50
2009,07,29,06,00,20.60
2009,07,29,06,01,20.60
2009,07,29,06,02,20.70
2009,07,29,06,03,20.70
2009,07,29,06,04,20.70
2009,07,29,06,05,20.80
2009,07,29,06,06,20.80
2009,07,29,06,07,20.80
2009,07,29,06,08,20.90
2009,07,29,06,09,20.90
2009,07,29,06,10,20.90
2009,07,29,06,11,21.00
2009,07,29,06,12,21.00
2009,07,29,06,13,21.00
2009,07,29,06,14,21.00
2009,07,29,06,15,21.00
2009,07,29,06,16,21.00
2009,07,29,06,17,21.00
2009,07,29,06,18,21.00
2009,07,29,06,19,21.00
2009,07,29,06,20,21.00
2009,07,29,06,21,21.00
2009,07,29,06,22,20.90
2009,07,29,06,23,20.90
2009,07,29,06,24,20.90
2009,07,29,06,25,20.90
2009,07,29,06,26,20.90
2009,07,29,06,27,20.90
2009,07,29,06,28,21.00
2009,07,29,06,29,21.00
2009,07,29,06,30,21.10
2009,07,29,06,31,21.10
2009,07,29,06,32,21.20
2009,07,29,06,33,21.20
2009,07,29,06,34,21.20
2009,07,29,06,35,21.30
2009,07,29,06,36,21.30
2009,07,29,06,37,21.30
2009,07,29,06,38,21.30
2009,07,29,06,39,21.30
2009,07,29,06,40,21.30
2009,07,29,06,41,21.30
2009,07,29,06,42,21.30
2009,07,29,06,43,21.30
2009,07,29,06,44,21.30
2009,07,29,06,45,21.40
2009,07,29,06,46,21.40
2009,07,29,06,47,21.40
2009,07,29,06,48,21.60
2009,07,29,06,49,21.60
2009,07,29,06,50,21.60
2009,07,29,06,51,21.60
2009,07,29,06,52,21.60
2009,07,29,06,53,21.50
2009,07,29,06,54,21.40
2009,07,29,06,55,21.40
2009,07,29,06,56,21.30
2009,07,29,06,57,21.30
2009,07,29,06,58,21.30
2009,07,29,06,59,21.30
2009,07,29,07,00,21.20
2009,07,29,07,01,21.20
2009,07,29,07,02,21.20
2009,07,29,07,03,21.10
2009,07,29,07,04,21.10
2009,07,29,07,05,21.10
2009,07,29,07,06,21.10
2009,07,29,07,07,21.10
2009,07,29,07,08,21.10
2009,07,29,07,09,21.10
2009,07,29,07,10,21.10
2009,07,29,07,11,21.10
2009,07,29,07,12,21.10
2009,07,29,07,13,21.20
2009,07,29,07,14,21.20
2009,07,29,07,15,21.20
2009,07,29,07,16,21.30
2009,07,29,07,17,21.30
2009,07,29,07,18,21.30
2009,07,29,07,19,21.30
2009,07,29,07,20,21.30
2009,07,29,07,21,21.30
2009,07,29,07,22,21.40
2009,07,29,07,23,21.40
2009,07,29,07,24,21.40
2009,07,29,07,25,21.50
2009,07,29,07,26,21.60
2009,07,29,07,27,21.60
2009,07,29,07,28,21.60
2009,07,29,07,29,21.60
2009,07,29,07,30,21.60
2009,07,29,07,31,21.40
2009,07,29,07,32,21.40
2009,07,29,07,33,21.30
2009,07,29,07,34,21.30
2009,07,29,07,35,21.30
2009,07,29,07,36,21.30
2009,07,29,07,37,21.30
2009,07,29,07,38,21.30
2009,07,29,07,39,21.30
2009,07,29,07,40,21.30
2009,07,29,07,41,21.30
2009,07,29,07,42,21.30
2009,07,29,07,43,21.30
2009,07,29,07,44,21.40
2009,07,29,07,45,21.40
2009,07,29,07,46,21.40
2009,07,29,07,47,21.30
2009,07,29,07,48,21.30
2009,07,29,07,49,21.30
2009,07,29,07,50,21.30
2009,07,29,07,51,21.20
2009,07,29,07,52,21.20
2009,07,29,07,53,21.20
2009,07,29,07,54,21.20
2009,07,29,07,55,21.20
2009,07,29,07,56,21.30
2009,07,29,07,57,21.30
2009,07,29,07,58,21.30
2009,07,29,07,59,21.30
2009,07,29,08,00,21.30
2009,07,29,08,01,21.40
2009,07,29,08,02,21.50
2009,07,29,08,03,21.60
2009,07,29,08,04,21.60
2009,07,29,08,05,21.60
2009,07,29,08,06,21.60
2009,07,29,08,07,21.60
2009,07,29,08,08,21.60
2009,07,29,08,09,21.70
2009,07,29,08,10,21.70
2009,07,29,08,11,21.70
2009,07,29,08,12,21.70
2009,07,29,08,13,21.70
2009,07,29,08,14,21.70
2009,07,29,08,15,21.70
2009,07,29,08,16,21.70
2009,07,29,08,17,21.70
2009,07,29,08,18,21.70
2009,07,29,08,19,21.70
2009,07,29,08,20,21.60
2009,07,29,08,21,21.60
2009,07,29,08,22,21.70
2009,07,29,08,23,21.70
2009,07,29,08,24,21.70
2009,07,29,08,25,21.70
2009,07,29,08,26,21.80
2009,07,29,08,27,21.90
2009,07,29,08,28,21.90
2009,07,29,08,29,22.00
2009,07,29,08,30,22.00
2009,07,29,08,31,22.00
2009,07,29,08,32,22.00
2009,07,29,08,33,22.00
2009,07,29,08,34,22.00
2009,07,29,08,35,22.10
2009,07,29,08,36,22.10
2009,07,29,08,37,22.20
2009,07,29,08,38,22.20
2009,07,29,08,39,22.30
2009,07,29,08,40,22.40
2009,07,29,08,41,22.40
2009,07,29,08,42,22.50
2009,07,29,08,43,22.50
2009,07,29,08,44,22.50
2009,07,29,08,45,22.50
2009,07,29,08,46,22.50
2009,07,29,08,47,22.50
2009,07,29,08,48,22.50
2009,07,29,08,49,22.50
2009,07,29,08,50,22.40
2009,07,29,08,51,22.40
2009,07,29,08,52,22.40
2009,07,29,08,53,22.30
2009,07,29,08,54,22.20
2009,07,29,08,55,22.20
2009,07,29,08,56,22.20
2009,07,29,08,57,22.20
2009,07,29,08,58,22.30
2009,07,29,08,59,22.40
2009,07,29,09,00,22.40
2009,07,29,09,01,22.50
2009,07,29,09,02,22.50
2009,07,29,09,03,22.50
2009,07,29,09,04,22.50
2009,07,29,09,05,22.60
2009,07,29,09,06,22.60
2009,07,29,09,07,22.50
2009,07,29,09,08,22.50
2009,07,29,09,09,22.50
2009,07,29,09,10,22.50
2009,07,29,09,11,22.60
2009,07,29,09,12,22.60
2009,07,29,09,13,22.70
2009,07,29,09,14,22.70
2009,07,29,09,15,22.80
2009,07,29,09,16,22.80
2009,07,29,09,17,22.90
2009,07,29,09,18,22.90
2009,07,29,09,19,22.90
2009,07,29,09,20,22.90
2009,07,29,09,21,22.90
2009,07,29,09,22,22.90
2009,07,29,09,23,22.90
2009,07,29,09,24,22.90
2009,07,29,09,25,22.90
2009,07,29,09,26,22.90
2009,07,29,09,27,22.90
2009,07,29,09,28,22.90
2009,07,29,09,29,22.90
2009,07,29,09,30,22.80
2009,07,29,09,31,22.80
2009,07,29,09,32,22.80
2009,07,29,09,33,22.80
2009,07,29,09,34,22.80
2009,07,29,09,35,22.90
2009,07,29,09,36,22.90
2009,07,29,09,37,22.90
2009,07,29,09,38,22.90
2009,07,29,09,39,22.90
2009,07,29,09,40,22.80
2009,07,29,09,41,22.70
2009,07,29,09,42,22.70
2009,07,29,09,43,22.60
2009,07,29,09,44,22.60
2009,07,29,09,45,22.60
2009,07,29,09,46,22.70
2009,07,29,09,47,22.70
2009,07,29,09,48,22.70
2009,07,29,09,49,22.80
2009,07,29,09,50,22.80
2009,07,29,09,51,22.90
2009,07,29,09,52,22.90
2009,07,29,09,53,23.00
2009,07,29,09,54,23.10
2009,07,29,09,55,23.20
2009,07,29,09,56,23.20
2009,07,29,09,57,23.30
2009,07,29,09,58,23.30
2009,07,29,09,59,23.30
2009,07,29,10,00,23.30
2009,07,29,10,01,23.30
2009,07,29,10,02,23.30
2009,07,29,10,03,23.30
2009,07,29,10,04,23.30
2009,07,29,10,05,23.30
2009,07,29,10,06,23.40
2009,07,29,10,07,23.50
2009,07,29,10,08,23.60
2009,07,29,10,09,23.70
2009,07,29,10,10,23.80
2009,07,29,10,11,23.80
2009,07,29,10,12,23.70
2009,07,29,10,13,23.80
2009,07,29,10,14,23.90
2009,07,29,10,15,24.00
2009,07,29,10,16,24.10
2009,07,29,10,17,24.20
2009,07,29,10,18,24.30
2009,07,29,10,19,24.40
2009,07,29,10,20,24.50
2009,07,29,10,21,24.60
2009,07,29,10,22,24.60
2009,07,29,10,23,24.60
2009,07,29,10,24,24.60
2009,07,29,10,25,24.70
2009,07,29,10,26,24.80
2009,07,29,10,27,24.90
2009,07,29,10,28,24.90
2009,07,29,10,29,25.00
2009,07,29,10,30,25.10
2009,07,29,10,31,25.00
2009,07,29,10,32,24.90
2009,07,29,10,33,24.70
2009,07,29,10,34,24.70
2009,07,29,10,35,24.70
2009,07,29,10,36,24.80
2009,07,29,10,37,24.80
2009,07,29,10,38,24.90
2009,07,29,10,39,24.90
2009,07,29,10,40,24.80
2009,07,29,10,41,24.70
2009,07,29,10,42,24.60
2009,07,29,10,43,24.60
2009,07,29,10,44,24.60
2009,07,29,10,45,24.60
2009,07,29,10,46,24.70
2009,07,29,10,47,24.80
2009,07,29,10,48,24.90
2009,07,29,10,49,25.00
2009,07,29,10,50,25.20
2009,07,29,10,51,25.40
2009,07,29,10,52,25.40
2009,07,29,10,53,25.40
2009,07,29,10,54,25.40
2009,07,29,10,55,25.30
2009,07,29,10,56,25.40
2009,07,29,10,57,25.40
2009,07,29,10,58,25.40
2009,07,29,10,59,25.40
2009,07,29,11,00,25.50
2009,07,29,11,01,25.50
2009,07,29,11,02,25.50
2009,07,29,11,03,25.50
2009,07,29,11,04,25.50
2009,07,29,11,05,25.50
2009,07,29,11,06,25.30
2009,07,29,11,07,25.20
2009,07,29,11,08,25.10
2009,07,29,11,09,25.10
2009,07,29,11,10,25.20
2009,07,29,11,11,25.40
2009,07,29,11,12,25.40
2009,07,29,11,13,25.60
2009,07,29,11,14,25.70
2009,07,29,11,15,25.70
2009,07,29,11,16,25.80
2009,07,29,11,17,25.90
2009,07,29,11,18,25.90
2009,07,29,11,19,25.80
2009,07,29,11,20,25.70
2009,07,29,11,21,25.70
2009,07,29,11,22,25.70
2009,07,29,11,23,25.70
2009,07,29,11,24,25.50
2009,07,29,11,25,25.40
2009,07,29,11,26,25.30
2009,07,29,11,27,25.30
2009,07,29,11,28,25.30
2009,07,29,11,29,25.30
2009,07,29,11,30,25.40
2009,07,29,11,31,25.40
2009,07,29,11,32,25.50
2009,07,29,11,33,25.50
2009,07,29,11,34,25.50
2009,07,29,11,35,25.50
2009,07,29,11,36,25.60
2009,07,29,11,37,25.60
2009,07,29,11,38,25.60
2009,07,29,11,39,25.70
2009,07,29,11,40,25.80
2009,07,29,11,41,25.80
2009,07,29,11,42,25.90
2009,07,29,11,43,26.10
2009,07,29,11,44,26.30
2009,07,29,11,45,26.40
2009,07,29,11,46,26.50
2009,07,29,11,47,26.60
2009,07,29,11,48,26.70
2009,07,29,11,49,26.80
2009,07,29,11,50,26.90
2009,07,29,11,51,27.00
2009,07,29,11,52,27.10
2009,07,29,11,53,27.20
2009,07,29,11,54,27.20
2009,07,29,11,55,27.20
2009,07,29,11,56,27.20
2009,07,29,11,57,27.20
2009,07,29,11,58,27.20
2009,07,29,11,59,27.10
2009,07,29,12,00,27.10
2009,07,29,12,01,27.20
2009,07,29,12,02,27.30
2009,07,29,12,03,27.30
2009,07,29,12,04,27.30
2009,07,29,12,05,27.30
2009,07,29,12,06,27.30
2009,07,29,12,07,27.20
2009,07,29,12,08,27.20
2009,07,29,12,09,27.10
2009,07,29,12,10,27.00
2009,07,29,12,11,26.90
2009,07,29,12,12,26.90
2009,07,29,12,13,26.80
2009,07,29,12,14,26.80
2009,07,29,12,15,26.80
2009,07,29,12,16,26.80
2009,07,29,12,17,26.80
2009,07,29,12,18,26.80
2009,07,29,12,19,26.90
2009,07,29,12,20,26.90
2009,07,29,12,21,27.00
2009,07,29,12,22,27.10
2009,07,29,12,23,27.20
2009,07,29,12,24,27.20
2009,07,29,12,25,27.20
2009,07,29,12,26,27.20
2009,07,29,12,27,27.20
2009,07,29,12,28,27.20
2009,07,29,12,29,27.20
2009,07,29,12,30,27.30
2009,07,29,12,31,27.30
2009,07,29,12,32,27.40
2009,07,29,12,33,27.50
2009,07,29,12,34,27.60
2009,07,29,12,35,27.70
2009,07,29,12,36,27.80
2009,07,29,12,37,27.90
2009,07,29,12,38,27.90
2009,07,29,12,39,28.00
2009,07,29,12,40,28.10
2009,07,29,12,41,28.10
2009,07,29,12,42,28.10
2009,07,29,12,43,27.90
2009,07,29,12,44,27.80
2009,07,29,12,45,27.60
2009,07,29,12,46,27.50
2009,07,29,12,47,27.40
2009,07,29,12,48,27.30
2009,07,29,12,49,27.30
2009,07,29,12,50,27.30
2009,07,29,12,51,27.30
2009,07,29,12,52,27.30
2009,07,29,12,53,27.30
2009,07,29,12,54,27.30
2009,07,29,12,55,27.30
2009,07,29,12,56,27.40
2009,07,29,12,57,27.40
2009,07,29,12,58,27.40
2009,07,29,12,59,27.40
2009,07,29,13,00,27.50
2009,07,29,13,01,27.60
2009,07,29,13,02,27.60
2009,07,29,13,03,27.70
2009,07,29,13,04,27.70
2009,07,29,13,05,27.80
2009,07,29,13,06,27.80
2009,07,29,13,07,27.90
2009,07,29,13,08,28.00
2009,07,29,13,09,28.10
2009,07,29,13,10,28.20
2009,07,29,13,11,28.10
2009,07,29,13,12,28.10
2009,07,29,13,13,28.20
2009,07,29,13,14,28.20
2009,07,29,13,15,28.20
2009,07,29,13,16,28.20
2009,07,29,13,17,28.30
2009,07,29,13,18,28.40
2009,07,29,13,19,28.40
2009,07,29,13,20,28.40
2009,07,29,13,21,28.40
2009,07,29,13,22,28.30
2009,07,29,13,23,28.40
2009,07,29,13,24,28.40
2009,07,29,13,25,28.40
2009,07,29,13,26,28.40
2009,07,29,13,27,28.50
2009,07,29,13,28,28.60
2009,07,29,13,29,28.70
2009,07,29,13,30,28.80
2009,07,29,13,31,28.90
2009,07,29,13,32,29.00
2009,07,29,13,33,29.10
2009,07,29,13,34,29.10
2009,07,29,13,35,29.20
2009,07,29,13,36,29.30
2009,07,29,13,37,29.30
2009,07,29,13,38,29.20
2009,07,29,13,39,29.20
2009,07,29,13,40,29.20
2009,07,29,13,41,29.40
2009,07,29,13,42,29.50
2009,07,29,13,43,29.60
2009,07,29,13,44,29.70
2009,07,29,13,45,29.80
2009,07,29,13,46,29.90
2009,07,29,13,47,30.10
2009,07,29,13,48,30.20
2009,07,29,13,49,30.30
2009,07,29,13,50,30.30
2009,07,29,13,51,30.30
2009,07,29,13,52,30.30
2009,07,29,13,53,30.30
2009,07,29,13,54,30.20
2009,07,29,13,55,30.20
2009,07,29,13,56,30.20
2009,07,29,13,57,30.20
2009,07,29,13,58,30.10
2009,07,29,13,59,30.10
2009,07,29,14,00,30.10
2009,07,29,14,01,30.10
2009,07,29,14,02,30.00
2009,07,29,14,03,29.90
2009,07,29,14,04,29.80
2009,07,29,14,05,29.90
2009,07,29,14,06,29.90
2009,07,29,14,07,30.10
2009,07,29,14,08,30.10
2009,07,29,14,09,30.20
2009,07,29,14,10,30.20
2009,07,29,14,11,30.20
2009,07,29,14,12,30.20
2009,07,29,14,13,30.20
2009,07,29,14,14,30.20
2009,07,29,14,15,30.30
2009,07,29,14,16,30.40
2009,07,29,14,17,30.40
2009,07,29,14,18,30.40
2009,07,29,14,19,30.60
2009,07,29,14,20,30.60
2009,07,29,14,21,30.60
2009,07,29,14,22,30.70
2009,07,29,14,23,30.80
2009,07,29,14,24,30.80
2009,07,29,14,25,30.90
2009,07,29,14,26,31.00
2009,07,29,14,27,31.10
2009,07,29,14,28,31.20
2009,07,29,14,29,31.20
2009,07,29,14,30,31.10
2009,07,29,14,31,31.00
2009,07,29,14,32,30.90
2009,07,29,14,33,30.90
2009,07,29,14,34,30.90
2009,07,29,14,35,30.80
2009,07,29,14,36,30.80
2009,07,29,14,37,30.80
2009,07,29,14,38,30.90
2009,07,29,14,39,30.90
2009,07,29,14,40,30.90
2009,07,29,14,41,30.90
2009,07,29,14,42,30.90
2009,07,29,14,43,30.90
2009,07,29,14,44,31.00
2009,07,29,14,45,30.90
2009,07,29,14,46,30.90
2009,07,29,14,47,30.80
2009,07,29,14,48,30.80
2009,07,29,14,49,30.90
2009,07,29,14,50,31.00
2009,07,29,14,51,31.10
2009,07,29,14,52,31.20
2009,07,29,14,53,31.30
2009,07,29,14,54,31.30
2009,07,29,14,55,31.40
2009,07,29,14,56,31.40
2009,07,29,14,57,31.40
2009,07,29,14,58,31.30
2009,07,29,14,59,31.30
2009,07,29,15,00,31.30
2009,07,29,15,01,31.20
2009,07,29,15,02,31.20
2009,07,29,15,03,31.10
2009,07,29,15,04,31.10
2009,07,29,15,05,31.10
2009,07,29,15,06,31.10
2009,07,29,15,07,31.10
2009,07,29,15,08,31.20
2009,07,29,15,09,31.20
2009,07,29,15,10,31.20
2009,07,29,15,11,31.20
2009,07,29,15,12,31.20
2009,07,29,15,13,31.20
2009,07,29,15,14,31.20
2009,07,29,15,15,31.20
2009,07,29,15,16,31.20
2009,07,29,15,17,31.30
2009,07,29,15,18,31.40
2009,07,29,15,19,31.40
2009,07,29,15,20,31.40
2009,07,29,15,21,31.50
2009,07,29,15,22,31.60
2009,07,29,15,23,31.80
2009,07,29,15,24,31.90
2009,07,29,15,25,32.00
2009,07,29,15,26,32.10
2009,07,29,15,27,32.20
2009,07,29,15,28,32.40
2009,07,29,15,29,32.60
2009,07,29,15,30,32.80
2009,07,29,15,31,32.80
2009,07,29,15,32,32.80
2009,07,29,15,33,32.90
2009,07,29,15,34,32.90
2009,07,29,15,35,32.90
2009,07,29,15,36,32.90
2009,07,29,15,37,32.90
2009,07,29,15,38,32.80
2009,07,29,15,39,32.80
2009,07,29,15,40,32.80
2009,07,29,15,41,32.90
2009,07,29,15,42,33.00
2009,07,29,15,43,33.10
2009,07,29,15,44,33.30
2009,07,29,15,45,33.50
2009,07,29,15,46,33.70
2009,07,29,15,47,33.80
2009,07,29,15,48,34.00
2009,07,29,15,49,34.00
2009,07,29,15,50,34.00
2009,07,29,15,51,34.00
2009,07,29,15,52,33.80
2009,07,29,15,53,33.70
2009,07,29,15,54,33.60
2009,07,29,15,55,33.60
2009,07,29,15,56,33.60
2009,07,29,15,57,33.50
2009,07,29,15,58,33.40
2009,07,29,15,59,33.20
2009,07,29,16,00,33.10
2009,07,29,16,01,33.00
2009,07,29,16,02,33.00
2009,07,29,16,03,32.90
2009,07,29,16,04,32.80
2009,07,29,16,05,32.80
2009,07,29,16,06,32.80
2009,07,29,16,07,32.90
2009,07,29,16,08,32.90
2009,07,29,16,09,33.00
2009,07,29,16,10,33.00
2009,07,29,16,11,33.10
2009,07,29,16,12,33.10
2009,07,29,16,13,33.10
2009,07,29,16,14,33.20
2009,07,29,16,15,33.30
2009,07,29,16,16,33.40
2009,07,29,16,17,33.40
2009,07,29,16,18,33.20
2009,07,29,16,19,33.20
2009,07,29,16,20,33.20
2009,07,29,16,21,33.40
2009,07,29,16,22,33.50
2009,07,29,16,23,33.50
2009,07,29,16,24,33.60
2009,07,29,16,25,33.60
2009,07,29,16,26,33.50
2009,07,29,16,27,33.50
2009,07,29,16,28,33.40
2009,07,29,16,29,33.40
2009,07,29,16,30,33.40
2009,07,29,16,31,33.40
2009,07,29,16,32,33.50
2009,07,29,16,33,33.60
2009,07,29,16,34,33.60
2009,07,29,16,35,33.80
2009,07,29,16,36,33.80
2009,07,29,16,37,34.00
2009,07,29,16,38,34.00
2009,07,29,16,39,34.00
2009,07,29,16,40,34.10
2009,07,29,16,41,34.10
2009,07,29,16,42,34.20
2009,07,29,16,43,34.20
2009,07,29,16,44,34.30
2009,07,29,16,45,34.30
2009,07,29,16,46,34.30
2009,07,29,16,47,34.40
2009,07,29,16,48,34.40
2009,07,29,16,49,34.40
2009,07,29,16,50,34.40
2009,07,29,16,51,34.30
2009,07,29,16,52,34.30
2009,07,29,16,53,34.30
2009,07,29,16,54,34.40
2009,07,29,16,55,34.40
2009,07,29,16,56,34.60
2009,07,29,16,57,34.70
2009,07,29,16,58,34.80
2009,07,29,16,59,34.90
2009,07,29,17,00,35.00
2009,07,29,17,01,35.10
2009,07,29,17,02,35.20
2009,07,29,17,03,35.30
2009,07,29,17,04,35.30
2009,07,29,17,05,35.30
2009,07,29,17,06,35.30
2009,07,29,17,07,35.30
2009,07,29,17,08,35.40
2009,07,29,17,09,35.50
2009,07,29,17,10,35.30
2009,07,29,17,11,35.50
2009,07,29,17,12,35.50
2009,07,29,17,13,35.40
2009,07,29,17,14,35.30
2009,07,29,17,15,35.20
2009,07,29,17,16,35.10
2009,07,29,17,17,35.10
2009,07,29,17,18,35.00
2009,07,29,17,19,34.90